User: anonymous   Login
Location: Unspecified
(42.3650°N, 71.1030°W)
Time: 22:03:51
(UTC+00:00)
Language:

Vanguard 2 Rocket - Orbit

View from above orbital plane
View from above orbital plane
View from above satellite
View from above satellite

Ground track
Ground track

The orbit data is extracted from the following two-line orbital elements,

1    12U 59001B   24175.14637344  .00001907  00000-0  11055-2 0  9990
2    12  32.9073 253.7778 1654859 235.5266 107.7884 11.46542903690695
Epoch (UTC): 23 June 2024 03:30:46
Eccentricity: 0.1654859
inclination: 32.9073°
perigee height: 554 km
apogee height: 3304 km
right ascension of ascending node: 253.7778°
argument of perigee: 235.5266°
revolutions per day: 11.46542903
mean anomaly at epoch: 107.7884°
orbit number at epoch: 69069

The dashed part of the orbit path shows where the satellite is in the earth's shadow,  

DLR